Change the Weather History Date:

Sunday, December 23, 2012

  Actual Average (KOMA) Record (KOMA)
Temperature  
Mean Temperature 14 °F 24 °F  
Max Temperature 19 °F 34 °F 67 °F (1964)
Min Temperature 10 °F 15 °F -20 °F (1983)
Degree Days  
Heating Degree Days 50 41  
Month to date heating degree days 880  
Since 1 July heating degree days 2150  
Cooling Degree Days 0 0  
Month to date cooling degree days 0  
Year to date cooling degree days 1113  
Moisture  
Dew Point 11 °F    
Average Humidity 83    
Maximum Humidity 89    
Minimum Humidity 75    
Precipitation  
Precipitation 0.00 in 0.03 in 0.56 in (1926)
Month to date precipitation 0.83  
Year to date precipitation 30.41  
Snow  
Snow 0.00 in 0.20 in - ()
Month to date snowfall 4.6  
Since 1 July snowfall 7.4  
Snow Depth -    
Sea Level Pressure  
Sea Level Pressure 29.99 in    
Wind  
Wind Speed 9 mph (North)    
Max Wind Speed 17 mph    
Max Gust Speed 17 mph    
Visibility 9 miles    
Events      
T = Trace of Precipitation, MM = Missing Value Source: NWS Daily Summary

Daily Weather History Graph

Daily Weather History Graph

Search for Another Location

Airport or City:

Trip Planner

Search our weather history database for the weather conditions in past years. The results will help you decide how hot, cold, wet, or windy it might be!

Date:

Astronomy

Dec. 23, 2012 Rise Set
Actual Time 7:48 AM CST 4:59 PM CST
Civil Twilight 7:16 AM CST 5:30 PM CST
Nautical Twilight 6:42 AM CST 6:05 PM CST
Astronomical Twilight 6:08 AM CST 6:39 PM CST
Moon 1:51 PM CST (12/23) 3:30 AM CST (12/23)
Length of Visible Light 10h 13m
Length of Day
9h 10m
Waxing Gibbous, 82% of the Moon is Illuminated
Dec 23
Waxing Gibbous
Dec 28
Full
Jan 4
Last Quarter
Jan 11
New
Jan 18
First Quarter

Hourly Weather History & Observations

Time (CST) Temp. Windchill Dew Point Humidity Pressure Visibility Wind Dir Wind Speed Gust Speed Precip Events Conditions
12:15 AM 18.7 °F 8.6 °F 14.9 °F 85% 30.00 in 7.0 mi NNW 8.1 mph - N/A   Clear
12:35 AM 17.6 °F 7.3 °F 14.0 °F 86% 30.00 in 7.0 mi North 8.1 mph - N/A   Clear
12:55 AM 16.7 °F 5.3 °F 13.1 °F 86% 30.00 in 7.0 mi North 9.2 mph - N/A   Clear
1:15 AM 16.3 °F 4.9 °F 12.7 °F 86% 30.00 in 7.0 mi North 9.2 mph - N/A   Clear
1:35 AM 15.6 °F 4.0 °F 12.0 °F 86% 29.99 in 7.0 mi North 9.2 mph - N/A   Clear
1:55 AM 14.7 °F 3.8 °F 11.3 °F 86% 29.99 in 7.0 mi North 8.1 mph - N/A   Clear
2:15 AM 14.2 °F 1.4 °F 10.8 °F 86% 29.99 in 7.0 mi NNW 10.4 mph - N/A   Clear
2:35 AM 13.6 °F 2.5 °F 10.2 °F 86% 30.00 in 7.0 mi NNW 8.1 mph - N/A   Clear
2:55 AM 13.5 °F -0.2 °F 9.9 °F 86% 30.01 in 10.0 mi NNW 11.5 mph - N/A   Clear
3:15 AM 13.1 °F 0.9 °F 9.1 °F 84% 30.01 in 10.0 mi North 9.2 mph - N/A   Clear
3:35 AM 12.9 °F -2.8 °F 8.8 °F 84% 30.00 in 10.0 mi North 15.0 mph - N/A   Clear
3:55 AM 12.7 °F -3.0 °F 8.6 °F 84% 29.99 in 10.0 mi North 15.0 mph - N/A   Clear
4:15 AM 12.9 °F -3.9 °F 8.6 °F 83% 29.99 in 10.0 mi North 17.3 mph - N/A   Clear
4:35 AM 12.6 °F -3.3 °F 8.2 °F 83% 29.99 in 10.0 mi North 15.0 mph - N/A   Clear
4:55 AM 12.6 °F 0.2 °F 8.4 °F 83% 30.01 in 10.0 mi North 9.2 mph 17.3 mph N/A   Clear
5:15 AM 12.2 °F -1.0 °F 8.4 °F 85% 30.01 in 10.0 mi North 10.4 mph - N/A   Clear
5:35 AM 12.2 °F -1.8 °F 8.1 °F 83% 30.01 in 10.0 mi North 11.5 mph - N/A   Clear
5:55 AM 11.7 °F -1.7 °F 7.7 °F 84% 30.00 in 10.0 mi North 10.4 mph - N/A   Clear
6:15 AM 11.7 °F -2.5 °F 7.7 °F 84% 30.00 in 10.0 mi North 11.5 mph - N/A   Clear
6:35 AM 11.7 °F -0.9 °F 7.7 °F 84% 30.01 in 10.0 mi North 9.2 mph - N/A   Clear
6:55 AM 11.3 °F -1.3 °F 7.7 °F 85% 30.01 in 10.0 mi North 9.2 mph - N/A   Clear
7:15 AM 10.8 °F -2.0 °F 7.3 °F 86% 30.01 in 7.0 mi North 9.2 mph - N/A   Clear
7:35 AM 10.4 °F -2.4 °F 6.8 °F 85% 30.03 in 10.0 mi NNW 9.2 mph - N/A   Clear
7:55 AM 10.4 °F -4.1 °F 6.8 °F 85% 30.03 in 10.0 mi North 11.5 mph - N/A   Clear
8:15 AM 10.4 °F -3.3 °F 6.6 °F 85% 30.02 in 10.0 mi North 10.4 mph - N/A   Clear
8:35 AM 10.4 °F -4.1 °F 6.8 °F 85% 30.01 in 10.0 mi North 11.5 mph - N/A   Clear
8:55 AM 11.1 °F -4.5 °F 7.2 °F 84% 30.01 in 10.0 mi NNE 13.8 mph 17.3 mph N/A   Clear
9:15 AM 11.3 °F -2.9 °F 7.2 °F 83% 30.01 in 10.0 mi NNE 11.5 mph - N/A   Clear
9:35 AM 12.0 °F -1.3 °F 7.3 °F 81% 30.01 in 10.0 mi North 10.4 mph - N/A   Clear
9:55 AM 12.6 °F 2.2 °F 7.7 °F 81% 30.02 in 10.0 mi North 6.9 mph - N/A   Clear
10:15 AM 12.9 °F 2.6 °F 7.9 °F 80% 30.02 in 10.0 mi NNE 6.9 mph - N/A   Clear
10:35 AM 14.0 °F 2.9 °F 9.0 °F 80% 30.01 in 10.0 mi NNE 8.1 mph - N/A   Clear
10:55 AM 14.7 °F 5.9 °F 9.3 °F 79% 30.01 in 10.0 mi North 5.8 mph - N/A   Clear
11:15 AM 15.6 °F 5.9 °F 9.9 °F 78% 30.01 in 10.0 mi North 6.9 mph - N/A   Clear
11:35 AM 16.0 °F 8.8 °F 10.0 °F 77% 30.01 in 10.0 mi NNE 4.6 mph - N/A   Clear
11:55 AM 16.7 °F 8.3 °F 10.4 °F 76% 30.01 in 10.0 mi NNW 5.8 mph - N/A   Clear
12:15 PM 17.4 °F 8.0 °F 11.1 °F 76% 30.01 in 10.0 mi North 6.9 mph - N/A   Clear
12:35 PM 17.6 °F 8.2 °F 11.3 °F 76% 29.99 in 10.0 mi North 6.9 mph - N/A   Clear
12:55 PM 18.1 °F 11.3 °F 11.5 °F 75% 29.98 in 10.0 mi North 4.6 mph - N/A   Clear
1:15 PM 18.5 °F 13.3 °F 11.8 °F 75% 29.98 in 10.0 mi North 3.5 mph - N/A   Clear
1:35 PM 19.4 °F 11.5 °F 12.9 °F 76% 29.96 in 10.0 mi NE 5.8 mph - N/A   Clear
1:55 PM 18.9 °F 10.8 °F 12.4 °F 76% 29.97 in 10.0 mi NNE 5.8 mph - N/A   Clear
2:15 PM 19.0 °F 11.1 °F 12.4 °F 75% 29.97 in 10.0 mi North 5.8 mph - N/A   Clear
2:35 PM 18.9 °F 8.0 °F 12.7 °F 77% 29.97 in 10.0 mi NNW 9.2 mph - N/A   Clear
2:55 PM 18.7 °F 10.6 °F 12.7 °F 78% 29.96 in 10.0 mi NNE 5.8 mph - N/A   Clear
3:15 PM 19.0 °F 11.1 °F 13.1 °F 78% 29.96 in 10.0 mi NE 5.8 mph - N/A   Clear
3:35 PM 18.5 °F 8.4 °F 13.1 °F 79% 29.96 in 10.0 mi NNW 8.1 mph - N/A   Clear
3:55 PM 17.6 °F 8.2 °F 12.7 °F 81% 29.96 in 10.0 mi North 6.9 mph - N/A   Clear
4:15 PM 17.2 °F 6.8 °F 12.6 °F 82% 29.96 in 10.0 mi North 8.1 mph - N/A   Clear
4:35 PM 16.7 °F 6.2 °F 12.2 °F 82% 29.95 in 10.0 mi North 8.1 mph - N/A   Clear
4:55 PM 16.3 °F 5.7 °F 12.2 °F 84% 29.95 in 7.0 mi North 8.1 mph - N/A   Clear
5:15 PM 16.2 °F 4.7 °F 12.4 °F 85% 29.94 in 7.0 mi NNE 9.2 mph - N/A   Clear
5:35 PM 16.5 °F 5.1 °F 12.7 °F 85% 29.93 in 10.0 mi NE 9.2 mph - N/A   Clear
5:55 PM 16.5 °F 8.1 °F 12.7 °F 85% 29.95 in 10.0 mi North 5.8 mph - N/A   Clear
6:15 PM 16.3 °F 9.2 °F 12.6 °F 85% 29.97 in 7.0 mi WNW 4.6 mph - N/A   Clear
6:35 PM 15.8 °F 6.1 °F 12.2 °F 86% 29.97 in 7.0 mi WNW 6.9 mph - N/A   Clear
6:55 PM 15.6 °F 7.0 °F 12.2 °F 86% 29.99 in 7.0 mi WNW 5.8 mph - N/A   Clear
7:15 PM 14.9 °F 7.5 °F 11.7 °F 87% 30.00 in 7.0 mi NNW 4.6 mph - N/A   Clear
7:35 PM 15.1 °F 7.7 °F 11.8 °F 87% 29.99 in 7.0 mi North 4.6 mph - N/A   Clear
7:55 PM 15.3 °F 7.9 °F 12.2 °F 88% 29.98 in 7.0 mi North 4.6 mph - N/A   Clear
8:15 PM 14.9 °F 9.2 °F 12.0 °F 88% 29.98 in 7.0 mi NNW 3.5 mph - N/A   Clear
8:55 PM 14.9 °F 7.5 °F 12.0 °F 88% 29.99 in 7.0 mi NW 4.6 mph - N/A   Mostly Cloudy
9:15 PM 15.8 °F 7.2 °F 13.1 °F 89% 29.98 in 7.0 mi North 5.8 mph - N/A   Overcast
9:35 PM 16.5 °F 6.0 °F 13.6 °F 88% 29.99 in 7.0 mi NNW 8.1 mph - N/A   Overcast
9:55 PM 16.7 °F 7.2 °F 13.6 °F 88% 30.00 in 7.0 mi NW 6.9 mph - N/A   Overcast
10:15 PM 17.6 °F 7.3 °F 14.9 °F 89% 29.98 in 5.0 mi North 8.1 mph - N/A   Overcast
10:35 PM 17.8 °F 5.2 °F 14.9 °F 88% 29.99 in 5.0 mi North 11.5 mph - N/A   Overcast
10:55 PM 18.0 °F 7.7 °F 15.3 °F 89% 30.00 in 5.0 mi NNW 8.1 mph - N/A   Overcast
11:15 PM 17.6 °F 8.2 °F 14.9 °F 89% 30.00 in 4.0 mi NW 6.9 mph - N/A   Overcast
11:35 PM 17.6 °F 9.3 °F 14.9 °F 89% 30.01 in 4.0 mi NW 5.8 mph - N/A   Overcast
11:55 PM 16.3 °F 5.7 °F 13.5 °F 88% 30.01 in 4.0 mi WNW 8.1 mph - N/A   Overcast